Location: Newark
(46.1292°N, 1.0086°W)
Time: 02:12:16
(UTC+00:00)

Transit 4A - Pass Details

Date: 23 November 2019
Orbit: 870 x 975 km, 66.8° (Epoch: 14 December)

Event Time Altitude Azimuth Distance (km) Brightness Sun altitude
Exits shadow 05:56:00 11° 324° (NW) 2,519 9.7 -13.5°
Maximum altitude 06:01:47 76° 240° (WSW) 906 7.7 -12.6°
Drops below altitude 10° 06:07:34 10° 156° (SSE) 2,510 10.8 -11.6°
Sets 06:10:01 0° 155° (SSE) 3,443 11.6 -11.2°
